Regional Weather Roundup
Issued by NWS

Home | Current Version | Previous Version | Text Only | Print | Product List | Glossary On
Versions: 1 2 3 4 5 6 7 8 9 10 11 12 13 14 15 16 17 18 19 20 21 22 23 24 25 26 27 28 29 30 31 32 33 34 35 36 37 38 39 40 41 42 43 44 45 46 47 48 49 50
000
ASCA42 TJSJ 221810
RWRPR
PUERTO RICO/U.S. VIRGIN ISLANDS HOURLY WEATHER ROUNDUP
NATIONAL WEATHER SERVICE SAN JUAN PR
200 PM AST SUN OCT 22 2017

PRZ001>002-007>008-010-221900-
PUERTO RICO

CITY           SKY/WX    TMP DP  RH WIND       PRES   REMARKS
SAN JUAN LMM   MOSUNNY   86  75  70 E18G26    30.01F HX  95
PONCE          SUNNY     88  70  55 SE20G25   29.99F HX  92
AGUADILLA      MOSUNNY   84  73  70 E20       30.02F HX  91
$$

VIZ001>002-221900-
U.S. VIRGIN ISLANDS

CITY           SKY/WX    TMP DP  RH WIND       PRES   REMARKS
$$

HOURLY WEATHER ROUNDUP FOR THE NEWS MEDIA

CITY           SKY/WX    TMP DP  RH WIND       PRES   REMARKS
ORLANDO        PTSUNNY   86  72  62 E12       30.10F HX  92
NEW YORK       PTSUNNY   71  53  52 S9        30.40F
NEWARK         PTSUNNY   74  47  38 SE9       30.37F
CHICAGO        CLOUDY    68  61  78 S15       29.91F
HARTFORD       SUNNY     73  52  47 SE9       30.37S
BOSTON         MOSUNNY   64  57  78 E12       30.39F
DALLAS         MOSUNNY   69  54  58 NW16G22   30.17S
PHILADELPHIA   PTSUNNY   75  46  35 SE5       30.37F
LOS ANGELES    MOSUNNY   85  31  14 VRB3      30.12F
WASHINGTON DC  MOSUNNY   75  58  55 S9        30.33F


USA.gov is the U.S. government's official web portal to all federal, state and local government web resources and services.